Theta_e
293 292 292 292 291 291 290 290 290 290 289 289 288 287 287 287 286 286 286 286 285 285 285 284 284 284 284 285 284 284 283 282 282 282 282 281 282 282 281 281 280 279 280 279 280 280 280 280 280 280 279 278 277 278 278 278 279 279 279 278 278 278 277 276 275 275 277 279 279 279 280 280 279 279 279 279 278 278 280 278 277 277 277 276 275
292 292 291 291 290 290 289 289 289 288 288 287 286 286 286 285 285 285 284 285 285 284 284 284 284 284 283 283 283 283 283 282 281 281 281 281 281 283 281 280 279 278 278 278 279 280 279 279 278 278 278 277 277 277 277 277 277 277 277 277 276 276 277 276 275 275 274 277 276 278 278 279 277 279 276 275 275 276 275 275 275 276 275 274 274
291 291 290 290 289 289 288 288 287 287 286 285 285 285 284 284 284 284 283 283 284 284 284 284 284 283 283 283 283 283 282 281 281 280 280 280 280 280 281 279 278 277 277 277 278 279 278 277 277 277 278 276 276 276 277 277 277 276 276 276 275 276 276 276 275 274 274 274 276 275 276 277 276 276 274 275 275 274 272 273 273 275 274 273 273
290 290 289 289 288 288 287 287 286 285 284 284 284 283 283 283 284 283 283 283 283 283 283 283 283 282 282 282 282 282 282 281 280 280 280 279 279 279 279 278 277 277 277 277 277 277 276 276 275 276 276 275 275 275 276 276 276 276 275 275 274 274 275 275 275 274 273 273 274 274 276 274 275 275 274 273 272 271 272 272 273 272 272 272 272
289 289 288 288 287 287 286 286 285 284 284 284 283 283 283 282 283 282 282 282 282 282 283 282 282 282 282 282 282 282 281 281 280 279 279 279 279 278 278 277 277 276 277 277 279 276 276 274 275 275 275 274 274 274 275 274 274 274 273 273 273 274 274 274 274 273 273 272 273 274 274 273 273 273 273 270 270 270 270 270 271 270 270 271 272
289 288 288 287 286 285 285 285 284 284 283 283 282 282 282 282 281 282 281 281 281 281 281 282 282 281 281 282 281 282 281 281 279 279 279 279 279 278 277 277 276 276 276 276 276 275 274 274 274 274 274 274 273 273 274 274 274 273 273 272 272 273 272 273 273 272 272 272 272 272 272 271 270 271 271 269 268 268 268 269 269 269 269 269 270
288 287 287 286 285 285 284 284 284 283 283 282 282 281 281 281 281 280 281 280 280 280 280 280 281 281 281 281 281 281 281 280 279 278 278 278 278 277 276 276 276 276 276 275 275 274 274 274 274 274 273 273 273 273 273 274 273 272 272 271 272 271 271 271 271 271 271 271 271 271 270 271 270 268 269 269 268 268 267 266 266 268 268 268 268
287 287 286 285 285 284 284 284 283 283 282 282 281 281 280 280 280 280 280 279 279 279 279 280 280 280 281 280 280 280 279 279 279 278 277 277 278 277 276 276 276 275 275 275 274 274 274 274 274 274 273 274 274 274 273 272 272 271 271 271 271 270 270 270 270 270 270 270 269 269 269 269 269 269 269 267 266 266 268 266 264 265 266 267 268
287 286 285 284 284 284 283 283 282 282 281 281 280 280 280 279 279 279 278 278 279 279 279 280 280 279 279 279 278 279 278 278 278 278 276 276 276 276 276 276 275 274 274 274 273 273 273 274 274 274 275 276 276 275 275 274 271 269 270 270 270 269 269 269 269 269 269 269 268 269 267 267 267 266 265 264 264 264 265 266 264 265 265 266 266
286 285 284 284 283 283 283 282 282 281 280 280 279 279 278 278 278 278 278 277 277 278 278 279 279 279 278 277 278 278 277 278 280 281 280 277 276 276 276 275 275 274 273 273 273 273 273 273 274 276 275 275 275 275 275 274 274 272 271 270 269 268 268 267 268 269 268 267 267 266 265 264 265 265 264 264 265 265 265 265 263 264 265 264 265
286 285 284 284 283 282 281 281 280 280 280 279 278 278 278 278 277 277 277 276 276 277 277 278 278 278 277 277 277 277 277 278 280 280 280 280 277 275 274 274 274 273 273 272 272 272 272 272 272 273 273 273 273 274 274 273 273 273 273 273 272 269 268 267 267 269 267 266 266 265 264 263 264 264 263 264 264 264 264 264 264 264 263 262 260
285 284 284 283 282 282 281 280 280 279 279 278 278 277 277 277 276 276 276 275 276 276 276 277 277 277 277 276 276 276 276 279 279 279 279 279 278 276 274 274 273 272 272 272 272 272 271 271 271 271 272 271 271 270 271 272 272 272 272 272 271 271 272 270 269 267 267 264 264 264 264 263 263 263 263 264 263 265 265 265 264 263 262 262 262
284 284 283 283 282 281 280 279 279 279 278 278 277 277 276 276 276 275 275 275 275 275 275 276 277 276 276 275 275 275 276 279 279 278 279 279 279 277 274 273 273 272 272 271 271 271 271 272 270 271 271 273 272 270 269 269 271 271 271 271 271 271 270 271 272 269 267 264 264 262 264 263 262 263 264 264 266 264 264 264 264 263 263 262 262
284 283 282 282 281 281 280 279 279 278 278 277 277 276 276 275 275 275 275 275 275 275 275 275 276 276 275 274 274 275 276 278 278 278 278 278 278 276 274 273 272 271 271 271 271 271 271 271 270 269 270 271 271 270 269 269 268 268 268 268 268 268 269 270 271 270 269 266 264 263 264 265 262 264 265 267 265 264 264 263 264 263 263 262 263
283 283 282 281 281 280 279 279 278 278 277 277 276 275 275 275 275 275 275 274 274 274 274 274 275 275 274 274 274 275 276 278 278 277 277 278 277 275 273 273 271 271 271 271 271 271 271 271 270 269 269 270 272 271 270 269 268 267 267 267 267 267 267 267 269 268 267 266 265 265 265 265 265 265 266 267 266 266 265 264 264 264 263 263 263
282 282 281 280 280 280 279 278 278 277 277 276 275 275 275 275 274 275 274 274 274 274 274 274 275 274 274 273 273 274 275 278 277 276 276 276 276 273 272 272 271 270 270 271 271 271 271 270 270 269 268 269 271 272 271 269 267 266 265 266 266 266 266 269 270 270 269 268 267 267 266 267 269 268 268 267 267 266 266 266 264 262 260 258 258
282 282 281 280 280 279 279 278 277 277 276 275 275 275 274 274 274 274 274 273 273 273 273 273 274 274 273 272 272 273 274 276 276 276 276 276 274 272 272 272 271 270 270 271 271 271 271 270 270 269 268 268 271 271 271 269 266 265 265 264 265 265 265 267 269 269 269 269 269 269 269 269 269 269 269 269 268 267 265 258 257 260 256 255 256
282 282 281 280 280 279 279 278 277 276 276 275 275 275 275 274 274 274 273 273 272 272 272 272 273 273 272 272 272 272 273 275 276 276 275 275 273 271 271 271 271 270 270 270 270 270 270 271 270 268 268 268 271 271 270 269 265 265 264 264 263 263 264 265 264 265 268 267 267 267 267 267 267 267 267 267 268 267 263 255 259 260 256 258 256
282 282 281 280 279 279 278 278 277 276 276 275 275 274 274 274 274 274 273 273 272 272 272 272 272 273 273 272 273 271 272 273 275 275 275 274 273 271 271 270 270 269 269 269 270 269 269 270 270 269 268 269 271 271 270 269 265 265 264 263 262 262 263 262 263 263 263 262 261 261 261 263 262 262 262 266 266 265 263 261 261 260 257 257 257
282 281 280 279 279 278 278 277 277 276 275 275 275 274 274 273 273 273 273 272 271 271 271 271 271 272 272 271 271 271 271 271 273 275 275 274 273 271 271 269 269 269 269 268 268 269 268 268 270 270 270 270 270 270 269 269 267 265 264 262 262 260 264 263 264 264 262 261 260 260 260 260 261 261 261 261 262 262 263 262 262 261 258 257 256
281 280 279 278 278 277 277 277 276 276 275 275 274 274 273 273 273 272 271 271 271 270 270 270 270 270 270 269 269 270 270 270 271 273 274 274 274 271 270 269 269 269 268 268 268 267 267 267 267 270 270 269 270 269 269 268 268 266 264 262 263 265 267 264 262 263 260 259 259 259 259 259 259 260 260 260 261 261 261 262 262 261 259 257 255
279 278 277 277 277 276 276 276 276 275 275 274 273 273 273 273 272 272 271 270 270 269 269 269 269 269 268 268 267 267 269 269 270 272 272 273 273 272 269 269 270 269 268 267 267 267 268 267 267 269 270 269 269 269 268 268 267 265 264 266 268 268 266 263 261 258 257 256 256 256 256 256 257 258 259 259 260 260 261 260 261 260 260 259 258
278 277 277 276 276 275 275 275 275 274 273 273 272 271 272 271 271 270 269 269 268 268 268 268 268 267 266 266 266 267 267 267 268 268 271 271 272 272 272 270 272 269 266 265 267 267 268 267 267 269 269 269 269 268 268 267 266 265 266 267 267 268 265 259 258 255 254 254 254 253 255 256 256 256 258 258 259 260 259 260 259 259 259 259 259
277 276 275 275 275 274 274 274 273 273 272 272 271 271 270 270 270 269 268 268 267 267 267 267 267 266 265 265 265 266 266 266 268 268 269 270 271 271 272 272 272 268 267 266 266 266 266 266 267 269 268 269 269 268 267 266 265 266 266 267 266 264 260 257 256 255 255 254 254 253 254 256 257 256 257 258 258 258 258 258 258 258 258 258 258
275 274 274 273 272 272 272 271 271 271 271 271 270 270 269 269 268 268 267 267 266 266 266 266 266 266 265 264 265 265 265 265 266 267 268 269 269 270 270 271 271 271 267 267 267 266 267 268 268 269 269 268 268 267 265 264 265 265 265 266 263 258 256 255 254 254 252 253 253 253 254 255 257 257 258 258 257 257 256 255 256 257 257 257 257
274 274 273 272 271 271 270 270 270 270 270 270 270 269 269 268 267 267 267 266 266 265 265 265 266 266 265 265 264 264 265 264 264 266 266 266 267 268 269 269 270 269 267 266 267 267 268 269 269 269 267 266 263 261 260 261 263 263 262 261 258 257 255 253 252 253 252 251 251 252 253 255 255 257 257 256 255 253 254 252 253 252 252 252 252
273 272 271 270 269 269 269 268 268 268 268 268 268 268 268 267 266 265 265 265 265 265 265 264 265 265 265 265 264 264 263 263 263 264 264 264 264 265 266 265 268 268 266 265 265 264 266 267 266 266 265 265 264 263 262 262 259 258 258 257 256 255 255 254 253 253 251 252 251 252 254 254 254 253 252 252 252 252 254 252 252 251 252 251 251
272 270 269 269 268 268 267 266 266 266 266 266 266 266 266 266 265 264 264 264 264 264 264 264 264 264 264 265 264 263 263 262 263 262 263 263 263 264 264 264 264 264 263 263 264 264 263 265 265 263 261 260 259 258 257 256 257 256 255 254 254 256 256 258 257 254 254 254 253 253 252 251 250 251 250 251 251 251 252 251 251 251 252 251 249
269 268 268 267 267 266 266 265 265 264 265 265 265 265 264 264 264 264 266 265 265 265 264 264 264 265 265 264 262 261 262 261 262 265 263 265 263 263 263 263 263 263 264 266 263 263 262 261 259 258 258 257 257 257 257 257 256 257 256 255 254 254 253 252 252 252 253 251 251 251 251 250 250 250 250 250 250 250 250 250 250 250 250 250 249
267 267 266 266 265 265 264 264 264 263 263 263 263 264 266 266 266 264 264 266 267 268 267 264 265 264 264 264 264 262 262 262 266 268 266 266 268 267 267 267 268 264 266 269 266 261 260 258 259 258 258 258 256 256 256 256 255 254 254 256 255 253 253 253 253 252 252 252 251 250 250 249 249 249 249 250 250 250 250 253 250 250 249 249 249
266 265 265 264 264 264 263 263 263 263 263 262 262 262 263 266 268 267 266 266 267 268 269 269 269 267 264 262 266 268 267 268 268 268 268 268 269 269 269 270 270 270 269 266 262 260 258 259 258 258 257 257 256 256 256 255 254 253 253 253 253 253 254 253 252 252 251 251 251 250 249 249 249 249 249 249 250 250 249 249 249 249 249 249 248
265 264 264 264 264 263 263 263 263 262 262 262 262 262 262 262 263 266 266 266 267 268 269 269 269 268 268 266 262 262 267 268 268 268 267 267 267 267 268 268 268 269 269 269 260 260 259 258 258 258 257 256 256 255 255 254 254 253 252 251 252 252 252 252 253 250 250 250 250 250 249 249 249 249 249 249 250 249 249 249 248 248 249 249 249
264 263 263 263 263 263 262 262 262 262 261 261 261 261 261 261 260 261 264 266 266 268 269 269 269 269 269 269 268 266 265 267 268 268 267 266 266 265 266 267 267 268 268 265 261 258 259 258 257 257 257 255 255 254 254 254 253 252 252 251 251 252 252 252 253 251 251 251 249 249 249 249 250 250 250 250 249 248 249 249 249 248 249 248 249
264 263 263 263 262 262 262 262 262 262 262 261 261 261 261 261 261 260 259 260 261 263 264 265 264 266 267 267 266 266 267 267 266 265 264 264 265 266 266 265 267 267 267 262 261 259 258 258 257 256 255 255 254 254 253 253 253 252 251 252 252 252 252 252 250 251 251 251 250 250 250 249 249 249 248 248 248 248 248 249 249 248 248 248 248
264 263 263 263 263 262 262 262 262 262 261 261 261 260 260 260 260 259 259 258 258 258 259 261 263 264 262 262 264 264 264 263 264 264 264 264 265 265 266 263 261 260 260 258 257 257 256 255 255 255 254 254 253 253 252 252 252 252 252 252 252 252 251 250 251 250 250 249 249 249 249 249 249 249 249 248 248 248 248 248 248 248 248 248 248
263 262 263 263 263 262 262 262 262 261 261 260 260 259 259 259 259 259 259 259 258 258 258 258 258 261 262 261 261 262 262 262 262 263 263 264 265 265 259 257 258 257 257 257 257 256 256 255 255 254 253 252 252 252 252 252 252 252 252 251 251 251 250 250 250 250 250 249 249 250 250 249 249 249 248 248 248 248 248 248 248 249 249 248 249
262 262 262 262 262 261 261 261 261 260 260 259 259 258 258 258 257 257 257 257 257 257 257 256 256 256 259 258 259 259 260 261 261 262 262 261 263 262 258 257 256 256 255 255 255 254 254 254 253 252 252 252 252 252 252 252 252 251 252 252 251 250 250 250 249 249 249 249 249 249 249 249 249 248 248 248 248 248 248 249 249 249 249 249 250
261 260 260 260 260 260 259 259 260 260 258 258 258 258 257 257 256 256 256 256 256 255 255 255 256 254 254 255 259 256 256 259 259 258 258 258 258 257 257 256 256 255 254 255 255 254 254 253 253 253 252 252 252 252 251 251 251 251 251 250 250 250 252 252 252 251 250 249 249 249 249 249 249 248 249 248 248 248 248 249 248 248 249 249 249
260 261 261 260 260 258 258 258 258 257 257 257 257 256 256 256 256 255 255 255 255 255 254 255 255 254 255 256 255 255 255 252 253 252 253 253 254 255 254 254 254 254 254 253 253 253 252 252 252 252 251 251 252 252 251 251 250 250 250 250 250 249 250 250 249 249 249 249 249 249 249 249 249 249 249 248 248 249 249 249 249 248 248 248 248
259 259 260 260 259 259 258 257 257 256 256 256 256 256 255 255 255 255 255 254 254 254 254 254 254 254 255 256 253 255 252 251 252 252 253 253 254 254 254 253 253 253 252 252 252 251 251 251 251 251 251 250 251 250 250 249 249 250 249 249 249 249 249 249 249 249 249 249 249 249 249 249 249 249 248 249 249 249 249 249 249 249 249 248 249
258 258 258 259 258 257 257 257 256 256 256 256 256 255 255 255 255 255 255 254 254 254 254 254 254 255 256 256 256 256 253 252 253 253 253 253 253 253 253 253 253 252 252 252 252 252 251 251 250 250 250 250 250 250 249 249 249 249 249 249 249 250 249 248 248 249 249 249 249 249 249 249 249 248 248 249 250 250 250 250 249 249 249 249 249
257 257 257 257 257 256 256 256 256 256 256 255 255 255 254 254 255 254 254 254 254 254 253 253 254 254 255 257 256 257 254 252 253 252 252 253 252 252 253 253 253 253 252 252 251 250 250 249 249 249 249 249 249 249 248 248 249 249 249 249 249 249 249 249 249 249 249 249 249 249 249 249 249 249 249 251 249 249 249 249 249 248 248 248 248
257 257 257 256 256 256 255 255 255 254 255 254 254 255 254 254 254 254 253 253 253 253 253 252 253 254 254 256 256 256 254 253 252 252 252 252 252 252 252 252 252 252 251 250 250 249 249 248 248 248 248 249 249 249 249 249 248 248 248 248 248 248 249 249 249 249 249 249 249 249 249 249 249 249 249 249 249 249 248 248 248 248 248 248 248
257 257 256 256 256 256 255 255 253 254 254 254 254 254 254 253 253 253 253 252 253 253 252 252 253 253 253 254 254 254 252 252 251 251 251 251 251 251 251 251 250 249 248 248 247 247 247 247 247 247 246 247 247 245 246 246 247 247 248 248 248 249 248 248 248 248 249 249 249 249 249 249 249 249 249 249 248 248 248 248 248 248 248 248 248
256 256 255 254 254 253 252 253 253 253 254 253 253 253 253 252 252 252 253 252 252 252 252 252 252 252 252 252 252 252 251 251 251 250 250 250 250 250 249 248 247 247 247 247 246 245 245 247 246 245 246 246 246 246 246 246 246 247 247 247 247 248 249 248 248 249 249 248 249 249 249 249 248 248 248 248 248 248 248 248 247 248 248 248 248
255 254 254 253 253 253 253 253 254 253 253 252 252 252 252 252 252 252 252 252 252 252 252 252 252 251 251 251 251 251 251 250 250 250 249 249 249 248 247 246 247 247 247 247 246 246 247 246 247 246 246 246 246 246 247 246 247 248 248 248 248 249 249 249 248 248 249 249 249 249 249 249 248 248 249 248 248 248 247 247 247 248 248 248 248
254 253 253 253 253 253 253 253 253 253 253 252 252 252 252 252 252 252 252 252 251 251 251 251 251 251 251 250 250 250 250 249 249 248 248 248 247 247 246 245 247 246 246 246 244 246 246 247 246 245 245 245 244 246 246 246 246 247 248 248 248 248 248 249 249 249 249 249 249 249 249 248 248 248 248 248 248 248 248 248 248 247 248 248 248
254 253 254 254 254 253 253 253 252 252 252 252 252 252 252 252 252 252 251 251 251 251 251 251 251 250 250 249 249 249 248 248 248 248 248 247 246 246 246 245 246 246 245 245 244 245 245 245 245 245 246 246 246 246 246 246 246 247 247 248 248 248 249 249 249 249 249 249 249 249 249 248 248 248 248 248 247 247 247 247 248 248 248 248 249
253 253 253 253 253 253 252 253 252 252 252 252 252 252 251 251 251 252 251 251 251 250 250 249 249 249 248 248 248 248 248 248 247 247 247 247 246 245 246 246 245 246 245 246 246 245 246 246 246 246 246 246 246 246 246 246 246 246 246 246 248 251 251 251 250 250 251 251 250 249 249 248 248 248 248 248 248 248 248 248 248 248 248 248 248
253 253 253 253 253 252 253 253 252 252 252 252 251 251 251 251 250 251 251 250 250 249 249 249 248 248 248 248 248 248 248 247 247 247 247 246 246 245 246 246 245 245 245 245 245 245 245 243 244 245 246 246 246 246 246 246 246 247 245 247 249 250 250 250 251 251 251 250 250 249 249 249 248 248 248 248 248 248 248 248 248 248 248 248 248
253 253 253 253 252 252 252 252 252 252 252 251 251 251 250 250 250 249 249 249 249 249 249 249 248 248 248 248 248 247 247 247 247 247 246 246 246 245 246 245 246 244 244 244 245 245 245 245 245 246 245 246 246 246 246 246 246 246 248 250 250 250 250 250 250 250 251 251 250 250 249 249 248 248 248 248 248 247 248 248 248 248 248 248 248
Wind_Speed
7 6 6 6 6 6 6 6 6 5 6 6 6 6 6 7 6 5 6 5 5 5 5 4 4 4 4 4 4 4 5 6 5 5 5 4 5 5 5 6 6 6 6 7 6 6 6 6 7 7 7 7 7 6 6 6 6 6 6 7 7 7 7 5 5 6 4 3 5 5 6 4 5 5 7 8 9 9 11 10 11 10 9 10 11
7 7 6 6 7 7 6 6 6 6 6 6 7 7 6 6 5 6 6 5 6 6 6 4 4 5 4 5 5 5 6 6 5 5 5 4 4 4 5 6 6 6 5 5 6 5 5 6 7 7 6 7 7 7 6 6 6 6 6 7 6 6 6 5 4 3 7 4 4 4 4 5 5 6 10 9 8 9 10 9 8 8 9 10 10
6 7 7 7 7 7 7 7 7 7 7 6 7 6 6 6 6 7 7 6 6 6 6 6 6 5 5 5 5 5 6 6 5 5 5 4 5 4 5 6 6 6 6 5 5 5 6 6 6 5 5 7 6 6 6 6 6 6 6 6 6 5 5 4 2 3 4 6 5 5 4 5 4 8 9 7 7 9 10 10 8 8 8 10 9
7 8 7 8 8 8 8 7 8 8 8 7 8 7 7 7 7 8 7 7 8 6 6 6 6 6 5 5 5 5 6 6 6 5 4 4 4 5 6 6 6 6 6 5 5 6 6 6 5 5 5 7 7 5 5 5 5 5 5 5 5 4 4 3 3 1 2 5 5 5 5 5 6 6 6 6 8 8 8 7 7 8 9 8 9
8 8 8 9 9 9 9 8 9 9 9 9 9 9 8 8 7 8 8 8 7 7 6 5 6 6 6 5 5 5 6 7 6 5 4 4 5 5 6 6 6 6 6 6 7 7 7 6 5 5 5 7 6 5 4 4 4 5 5 4 4 3 3 3 3 4 3 4 4 4 5 6 6 6 8 9 7 7 7 7 8 10 9 9 7
9 9 9 10 10 10 10 9 10 10 10 9 10 9 8 8 8 7 8 9 8 7 7 6 6 6 6 5 5 5 6 7 7 6 5 4 5 5 5 5 6 6 6 7 7 7 7 6 6 6 6 6 5 4 3 4 4 4 5 4 3 3 3 4 4 4 3 3 3 4 5 6 7 6 8 9 10 11 9 7 7 8 8 9 8
10 10 10 10 9 10 10 10 9 9 9 9 8 8 8 8 8 9 8 9 9 8 7 7 6 6 6 5 5 5 6 7 7 6 5 5 6 6 6 5 5 5 6 7 8 7 7 7 7 6 6 5 5 5 4 4 4 4 5 4 3 3 4 3 3 3 3 2 3 4 4 5 5 5 7 8 9 8 8 9 8 8 7 8 9
10 10 9 9 9 10 9 8 8 8 8 8 8 8 8 8 8 8 8 9 9 9 9 8 7 6 6 6 5 4 5 5 6 6 4 5 5 6 6 6 6 6 6 7 8 8 8 7 7 6 6 6 6 6 5 5 4 4 4 4 3 4 3 3 3 3 3 3 4 3 4 4 4 4 6 6 6 5 5 6 9 9 8 7 7
10 10 9 10 10 9 8 7 7 8 8 9 9 9 8 8 8 8 8 8 7 8 8 8 9 8 7 7 6 5 5 5 3 5 6 5 5 5 6 6 7 7 7 7 8 8 7 6 7 8 9 11 12 10 9 8 5 4 4 4 4 4 3 3 3 3 3 3 2 3 3 4 4 6 6 6 6 6 7 7 7 8 8 8 7
11 11 11 10 9 9 9 8 9 9 10 10 9 9 9 9 9 8 8 8 8 8 8 8 8 9 9 8 7 6 5 3 6 9 10 5 5 5 5 5 6 7 7 7 8 8 7 6 8 13 12 11 11 11 10 10 9 5 3 2 3 3 3 2 2 2 2 2 3 4 4 4 5 5 6 6 5 7 8 8 9 9 8 8 5
11 11 12 10 10 10 10 10 10 11 10 10 9 10 10 9 9 9 9 8 9 9 9 9 8 8 9 8 8 6 4 4 10 10 12 14 7 6 5 6 6 6 6 7 7 8 8 6 5 7 8 8 8 10 9 8 7 7 6 4 4 3 2 2 2 2 2 2 3 4 4 4 5 5 5 6 6 7 8 9 9 9 9 9 9
11 10 10 10 10 11 11 11 11 11 11 11 10 10 9 9 9 9 9 9 8 8 9 8 8 9 8 8 8 6 5 9 11 11 11 13 11 7 6 6 6 5 5 6 6 6 6 7 6 5 5 6 6 5 6 6 7 7 5 4 4 5 4 2 1 2 3 3 2 3 4 4 5 6 6 7 8 9 10 9 9 9 10 10 9
10 10 10 11 11 11 11 12 12 11 11 11 10 10 10 10 10 10 10 9 8 9 9 9 9 9 9 9 8 6 5 11 11 12 11 12 14 10 6 7 6 6 6 5 5 6 5 6 6 5 5 9 6 5 4 3 6 7 6 5 5 5 2 3 4 5 3 3 3 3 5 5 6 6 7 8 10 10 10 9 9 9 9 10 9
12 12 11 12 12 12 12 12 12 12 11 11 11 11 11 11 10 9 9 9 9 9 9 9 9 9 9 9 8 7 8 11 12 12 11 11 13 10 6 8 7 6 6 5 5 4 4 4 5 6 5 5 5 4 3 3 3 3 3 3 1 4 4 3 2 5 5 4 3 2 4 5 5 7 8 9 10 10 10 10 10 10 10 10 11
11 11 12 11 11 12 12 12 12 12 12 12 11 11 12 11 11 10 10 10 10 10 10 10 9 9 9 9 8 8 7 13 12 11 11 12 13 11 7 7 7 6 5 5 5 5 5 5 6 6 5 4 4 4 3 2 3 3 2 3 2 2 1 2 1 2 2 2 2 3 4 6 7 8 9 9 9 9 10 10 11 10 10 10 8
12 11 12 12 13 13 13 13 13 12 13 12 13 13 12 12 12 10 10 8 7 8 7 8 9 10 9 9 8 8 8 13 12 11 11 11 12 6 5 7 7 7 6 6 6 5 5 5 6 6 5 3 3 5 4 4 3 2 2 3 3 2 2 0 4 1 2 1 3 4 6 8 11 10 10 10 9 9 10 8 7 8 8 6 7
14 14 14 14 14 13 13 14 13 13 13 14 14 13 13 12 11 10 10 10 10 9 9 8 8 10 10 9 10 9 9 11 12 11 11 11 9 6 6 6 6 7 6 6 5 6 6 6 6 5 5 2 1 3 3 6 3 1 2 2 3 1 3 1 4 3 1 5 8 10 13 14 14 14 15 16 12 10 8 4 6 7 3 8 7
15 14 14 14 13 13 13 14 14 14 14 15 14 13 11 10 11 10 11 11 10 10 9 8 8 9 10 9 9 10 9 10 12 12 11 10 8 6 6 6 7 6 6 6 5 5 7 10 7 6 5 2 1 3 3 5 3 1 0 2 2 2 2 4 3 3 6 7 8 11 13 13 14 15 14 14 14 11 8 3 8 7 3 7 8
14 15 14 12 12 12 12 12 13 14 14 13 13 13 13 12 10 9 9 9 9 9 9 9 8 8 9 10 13 11 10 9 11 11 11 11 8 5 5 6 6 6 5 4 5 6 7 7 9 8 7 4 3 3 3 4 4 0 1 1 3 1 1 4 1 1 3 2 3 5 6 9 8 8 8 14 13 11 7 7 7 7 5 6 8
11 9 9 10 10 11 10 12 12 12 12 11 11 11 10 10 11 11 10 9 9 9 9 9 9 9 10 10 9 9 10 8 8 10 11 11 10 5 5 5 5 6 6 5 4 6 7 6 7 8 8 6 3 3 2 2 3 0 1 1 3 1 3 4 3 1 1 3 3 5 6 6 7 7 7 7 7 8 8 7 7 7 5 6 6
8 8 8 9 10 11 10 11 12 11 11 11 10 10 10 11 11 11 11 9 10 10 10 9 9 8 8 9 9 8 7 8 8 9 9 10 10 7 2 5 5 5 4 4 4 4 5 6 5 9 10 5 3 3 1 2 2 1 1 2 3 4 5 3 1 3 1 2 4 4 5 5 6 6 6 6 6 6 6 7 7 7 6 6 7
7 8 10 10 10 10 10 10 10 10 10 10 11 10 9 9 10 10 9 9 10 10 10 9 8 8 8 7 8 7 8 8 7 9 8 8 9 10 5 4 5 5 3 4 4 4 3 4 6 9 11 7 5 3 1 1 3 2 3 5 7 8 4 4 2 1 0 1 3 3 3 4 4 4 6 6 6 6 6 6 6 7 7 7 7
9 9 9 10 10 10 9 11 10 8 9 10 11 9 9 8 8 8 8 8 9 9 10 9 9 9 7 6 6 6 6 5 7 5 8 7 7 7 9 7 7 6 5 2 3 3 1 4 5 10 10 7 5 5 3 1 2 2 5 6 7 9 4 2 1 0 1 2 3 3 4 4 4 4 4 4 6 6 6 6 7 8 8 8 9
9 9 9 9 9 9 9 8 8 8 10 10 10 11 8 8 7 7 6 7 6 7 7 7 7 8 8 7 6 5 5 4 7 8 7 9 6 6 7 10 10 5 4 4 2 3 1 2 5 8 8 8 8 5 3 1 2 5 7 7 8 5 2 0 0 1 2 3 3 4 4 4 3 5 5 5 4 5 6 7 8 8 9 8 10
9 9 9 9 8 7 7 8 8 7 7 9 11 11 11 8 11 5 8 7 5 6 5 5 6 7 7 7 7 6 6 6 5 8 9 8 8 7 5 7 9 11 6 4 4 3 4 6 7 9 9 7 7 3 1 2 4 7 8 9 6 1 0 1 2 1 2 4 4 5 4 4 5 5 5 4 5 6 5 6 6 6 8 9 10
9 9 8 8 9 9 10 9 8 8 9 7 9 7 11 12 12 11 11 11 9 6 6 7 6 7 7 7 8 7 7 6 5 6 8 7 7 7 7 6 6 7 9 5 6 7 7 9 10 7 9 6 4 3 3 2 3 4 5 5 1 1 1 2 2 3 4 4 4 4 5 4 5 5 4 5 5 6 5 6 7 7 5 5 8
9 8 9 10 9 10 13 10 7 7 9 8 8 8 9 11 12 11 10 11 11 10 10 10 9 8 8 7 7 7 7 6 6 5 5 4 3 3 4 2 5 6 4 3 3 3 5 6 5 7 5 7 6 6 4 4 1 2 1 1 2 3 3 2 3 4 4 4 5 4 4 4 3 4 5 5 6 6 4 6 7 8 6 5 7
10 10 12 12 11 11 11 11 13 10 9 10 10 10 8 10 10 11 12 12 13 11 11 11 10 9 9 8 7 7 7 6 6 6 6 6 5 4 4 3 2 3 4 4 4 5 4 5 6 3 2 1 1 1 0 2 4 4 4 3 4 3 4 5 5 3 4 4 4 5 4 4 4 6 4 5 6 6 5 6 6 7 7 5 5
10 12 12 12 11 11 11 10 11 11 9 7 6 6 9 10 10 7 3 2 8 12 12 10 8 7 8 8 7 6 6 7 7 9 8 9 9 6 5 6 5 5 8 11 7 4 4 5 3 3 3 4 3 3 4 3 4 4 5 5 4 4 3 3 5 6 5 4 6 6 6 5 5 5 5 6 7 6 6 5 6 6 7 5 7
11 12 12 12 8 9 8 6 6 9 10 9 7 7 8 8 5 9 8 8 8 7 9 8 7 7 7 4 9 11 7 7 12 14 14 14 16 15 14 13 13 10 11 14 8 6 5 7 6 6 5 5 5 5 5 5 4 5 4 5 5 4 5 5 5 6 5 5 6 5 6 5 6 6 5 7 7 6 5 6 6 5 5 7 8
13 12 12 9 7 10 6 7 6 6 6 6 5 10 9 6 10 10 9 11 10 12 13 12 14 11 9 6 7 14 10 13 15 15 15 15 16 16 16 15 13 15 16 8 3 6 7 6 6 6 6 6 6 6 5 5 5 5 5 5 5 5 6 5 6 6 6 6 6 6 6 6 6 6 6 7 7 7 5 5 5 5 6 7 8
13 8 7 6 7 6 6 6 6 6 6 5 6 7 10 11 8 10 12 11 11 11 13 14 14 14 14 11 6 3 11 14 14 14 12 10 9 6 6 7 7 9 9 10 4 5 5 6 6 6 6 6 6 6 5 5 5 5 5 4 5 4 5 6 6 5 6 6 6 7 6 6 6 6 7 7 8 7 7 6 5 5 7 7 9
13 8 7 7 6 6 6 6 6 6 7 7 6 6 9 10 12 9 7 11 9 9 12 13 13 13 14 15 14 10 6 8 12 12 9 10 8 6 7 9 10 11 12 7 4 4 5 5 6 6 6 7 6 5 5 5 5 6 6 6 6 6 6 6 4 5 7 7 6 6 6 6 7 8 8 8 7 8 7 7 7 6 7 8 10
14 15 11 9 8 7 6 6 6 5 5 4 5 6 6 7 8 10 12 9 5 3 3 4 5 5 9 12 10 10 12 11 8 7 6 6 7 8 8 6 10 12 12 7 7 5 5 6 6 6 6 5 5 5 5 5 5 6 6 6 6 6 6 5 5 7 6 6 6 6 6 7 7 6 8 7 6 6 8 9 7 7 8 8 9
10 9 13 9 5 6 6 5 5 6 6 6 6 6 6 5 7 9 9 8 7 6 5 5 7 7 3 3 6 7 7 6 6 8 8 8 11 12 12 6 5 3 2 3 3 3 4 4 5 4 4 5 5 5 6 6 6 5 6 6 6 6 5 5 6 6 6 6 6 7 8 7 7 8 7 7 7 7 8 8 8 8 9 10 9
10 6 5 7 6 5 5 6 6 6 7 6 5 6 6 6 7 6 6 7 6 7 4 4 3 4 8 4 5 6 6 7 7 8 8 10 9 10 4 4 3 5 5 5 4 5 5 5 5 5 5 5 5 5 6 6 6 6 6 6 7 6 6 6 7 6 6 7 8 8 7 7 7 7 6 7 8 9 9 9 9 9 9 9 9
5 5 6 5 5 5 6 6 5 6 6 6 6 6 5 5 5 5 6 7 7 6 6 5 4 1 4 3 5 5 7 8 8 8 8 7 9 6 2 4 5 5 5 5 5 4 5 5 5 5 5 5 5 5 5 6 6 6 6 6 7 7 7 7 7 7 6 7 8 8 8 8 7 6 6 8 8 8 9 9 9 10 10 11 11
5 5 5 5 6 6 6 5 6 8 7 6 5 6 5 5 6 5 5 6 6 8 7 5 5 6 6 5 6 5 3 3 6 3 5 6 6 4 4 5 5 6 6 6 5 5 6 5 5 5 5 5 5 5 5 6 6 6 6 6 6 7 8 8 9 7 7 7 8 8 8 8 7 7 7 8 9 9 9 9 8 9 10 11 9
6 9 10 10 7 5 5 6 6 6 6 6 5 6 6 5 5 5 4 4 5 4 3 4 4 5 5 4 4 5 6 1 4 5 5 5 5 5 5 5 5 6 5 6 5 5 5 5 6 5 5 5 6 6 6 6 5 6 6 6 7 7 7 7 7 7 7 8 9 8 8 8 8 7 7 8 9 9 9 9 9 9 10 10 10
6 5 6 9 5 6 5 6 5 5 5 6 5 6 5 6 6 6 5 6 5 5 5 6 6 5 5 5 8 6 7 7 6 6 5 6 6 6 5 6 6 6 6 5 5 5 5 5 5 5 5 5 6 6 6 6 6 6 6 7 7 8 8 7 7 7 8 8 8 8 8 9 8 7 7 8 9 9 9 10 10 9 9 10 11
4 5 4 5 6 5 5 5 5 5 5 5 5 6 6 5 5 5 4 5 5 5 5 5 4 4 5 7 11 10 7 7 6 6 6 6 6 6 6 6 6 6 5 5 5 5 5 5 5 5 6 6 6 6 6 6 6 6 7 8 7 8 7 6 7 8 8 8 9 9 8 8 7 7 9 9 8 9 9 9 9 9 9 9 10
5 5 4 4 5 4 5 4 4 4 4 4 4 5 5 5 5 4 5 5 4 4 4 4 3 4 5 12 12 14 8 5 6 6 6 5 6 6 6 6 5 5 6 5 5 6 6 6 6 6 6 6 6 6 6 6 6 7 7 7 7 7 7 7 7 8 8 9 9 9 8 8 8 8 9 8 8 8 9 9 9 9 9 10 10
5 4 4 4 4 5 4 4 4 5 4 5 4 4 4 5 4 4 5 4 4 4 4 4 3 4 5 10 11 12 6 6 5 7 6 6 6 6 6 6 6 6 5 5 6 6 6 6 6 6 6 7 6 6 6 7 6 6 6 7 7 7 8 7 7 8 8 8 9 8 8 8 8 8 8 8 8 8 9 9 9 9 9 10 10
5 4 4 4 4 4 4 4 4 4 3 4 4 4 4 4 3 4 4 4 4 5 5 5 5 5 5 7 8 7 6 6 6 6 7 6 6 6 6 5 6 6 6 6 5 5 6 6 6 6 6 6 6 5 6 6 6 6 6 7 7 8 7 7 7 7 7 7 8 8 8 8 8 8 8 9 7 8 9 8 9 9 9 10 10
4 5 4 4 3 4 3 3 4 4 4 4 4 4 4 5 5 4 4 4 4 5 5 5 5 6 6 6 6 7 7 7 7 6 6 7 7 7 6 6 6 6 6 6 5 4 4 6 6 5 6 6 6 5 6 6 5 6 6 6 7 8 8 8 7 6 6 7 8 8 8 7 7 7 8 8 7 8 9 9 9 9 11 11 10
3 4 4 4 4 4 4 3 4 4 4 4 5 4 4 4 4 4 4 5 5 6 6 6 6 7 7 7 7 6 7 6 6 6 7 6 6 6 6 6 6 6 6 6 5 5 6 6 6 6 6 6 6 6 6 5 6 6 7 7 8 8 8 7 6 6 7 7 8 7 8 8 8 8 9 8 8 8 9 9 9 9 10 12 12
3 3 4 4 4 4 4 4 4 4 4 4 4 5 5 5 5 5 6 7 7 6 7 7 7 7 7 7 7 7 7 7 7 6 7 7 7 7 7 6 6 6 7 7 5 7 7 7 6 6 6 5 5 6 6 6 6 6 6 6 7 7 6 6 6 7 7 7 7 8 8 8 9 8 9 8 8 8 9 10 10 11 11 11 12
3 3 3 3 3 4 3 4 4 4 4 4 5 5 5 6 6 7 6 7 8 7 7 7 7 7 7 7 7 7 7 7 6 7 7 7 7 7 6 5 6 6 5 6 5 5 5 5 5 5 6 6 6 6 6 7 7 7 7 7 7 7 8 9 7 8 7 7 7 8 8 8 8 8 8 8 9 8 9 10 10 10 11 11 11
3 4 3 4 4 4 4 5 4 6 6 6 6 7 6 7 7 7 7 7 7 7 7 7 7 7 7 7 7 7 7 7 7 7 7 7 6 6 6 6 6 6 6 6 7 6 6 6 6 6 6 6 6 7 6 6 7 7 6 6 8 14 15 14 10 7 9 8 7 7 7 8 8 9 9 10 10 9 10 10 11 11 11 11 12
4 4 4 4 4 4 4 4 5 5 5 5 6 6 6 6 7 7 7 7 6 7 7 7 7 8 7 7 8 8 7 7 8 7 7 7 6 5 6 6 6 6 6 6 6 6 6 5 6 6 6 6 7 7 7 7 7 7 6 7 11 15 13 13 13 13 11 7 8 8 8 9 9 9 9 9 9 10 11 11 10 11 11 12 12
3 4 4 4 4 4 4 5 5 5 6 6 6 7 7 7 7 7 7 7 8 8 7 8 8 7 8 8 8 7 8 8 7 7 7 6 6 6 6 6 7 6 6 6 6 6 6 6 6 6 6 7 7 7 7 7 7 7 9 12 14 13 14 13 9 10 14 12 9 8 8 8 8 8 7 7 7 8 11 12 12 11 11 10 11
Wind_Direction
155 157 147 147 145 146 143 138 136 136 134 133 131 131 129 127 128 128 115 113 112 103 100 96 91 92 91 91 93 91 85 77 67 65 62 64 57 64 70 75 79 69 67 62 58 64 66 71 62 56 55 59 49 33 22 25 35 33 32 41 41 33 33 26 8 325 337 32 3 356 339 5 358 27 22 33 28 22 24 18 11 7 10 8 2
162 152 148 147 150 148 144 140 142 142 138 136 132 131 127 124 122 110 108 105 98 100 97 98 97 97 98 95 93 89 85 83 83 83 79 72 66 70 78 80 82 78 70 74 69 67 67 68 63 64 61 69 58 40 25 30 34 39 36 45 37 30 27 34 349 338 316 340 2 349 347 6 3 22 40 27 18 17 15 11 6 12 12 7 356
155 151 152 155 155 151 149 150 148 147 140 135 129 126 122 119 120 119 117 114 106 109 115 115 115 112 110 109 104 98 95 93 91 94 94 89 87 83 86 89 90 89 85 81 82 80 73 67 64 65 72 71 65 50 34 41 39 43 43 45 37 28 15 14 11 325 325 328 344 342 354 357 15 39 36 25 19 15 10 6 3 10 10 1 351
156 155 155 158 156 154 156 153 150 148 143 143 139 137 136 136 134 129 129 124 121 119 118 121 117 115 115 111 109 108 104 98 89 85 93 99 100 96 92 91 90 90 92 88 82 81 80 74 62 63 75 79 70 56 44 53 50 47 47 38 36 21 4 355 341 350 330 333 330 350 337 8 18 40 43 27 18 14 8 352 6 10 359 353 347
160 162 162 162 163 162 162 160 159 157 154 151 148 144 143 138 134 134 129 123 121 118 114 113 115 116 118 120 120 116 116 113 106 99 94 98 102 99 96 96 96 95 93 89 87 88 85 79 71 64 71 84 72 62 47 59 54 59 56 36 22 12 351 334 342 13 354 321 316 333 7 19 12 10 27 17 4 10 0 0 10 359 349 345 340
168 167 170 169 170 169 167 165 168 163 156 153 150 146 142 139 137 134 133 129 126 124 126 125 130 128 124 126 127 126 122 118 117 117 119 115 110 104 102 101 102 98 96 92 90 90 90 85 76 73 75 80 83 70 60 63 55 61 63 36 4 16 360 357 21 354 339 318 342 353 18 9 6 4 22 19 3 349 350 357 5 348 342 335 337
172 174 174 174 171 174 172 173 166 161 156 153 148 146 145 144 142 143 141 135 134 134 131 127 125 125 125 122 122 122 117 116 117 114 112 118 121 118 115 116 111 105 98 97 94 91 87 86 81 79 80 80 82 81 70 70 68 41 63 36 355 38 3 16 6 343 353 7 8 24 21 3 2 2 9 23 3 342 340 346 340 331 335 329 326
175 176 175 176 178 176 174 167 162 156 151 149 148 146 144 143 141 138 135 135 136 136 136 133 129 122 120 110 103 97 97 103 115 118 114 114 121 122 124 124 118 107 98 96 97 93 90 89 89 86 89 91 92 84 81 71 60 40 40 32 9 37 12 21 360 358 11 27 8 24 10 354 351 28 6 7 340 337 355 344 320 320 323 319 320
176 177 177 180 181 172 163 159 151 149 151 149 150 150 147 142 139 137 136 135 135 135 134 134 131 123 112 108 99 86 78 69 60 125 121 117 107 118 126 126 119 113 104 101 103 100 95 95 100 104 100 95 90 85 81 82 78 54 27 47 24 40 18 11 2 15 8 34 2 13 14 353 358 358 351 351 338 338 336 321 308 309 309 314 305
178 179 182 182 171 166 162 157 156 153 154 157 155 151 148 147 143 140 140 138 136 135 134 133 132 128 122 117 108 101 98 92 95 116 138 126 119 115 114 121 122 120 117 112 111 112 112 115 115 111 103 94 87 83 80 72 68 76 79 73 63 55 34 34 358 31 22 43 356 32 357 356 351 348 347 319 336 328 321 320 318 312 317 302 300
183 182 184 175 170 163 162 163 157 162 160 155 156 153 152 149 145 141 140 139 138 138 136 137 136 129 126 124 120 115 115 123 125 113 130 138 132 125 119 109 100 109 118 119 122 124 124 115 99 102 99 89 82 79 75 72 57 49 51 58 69 87 77 36 341 53 31 36 11 28 6 350 337 343 326 321 335 323 324 318 314 316 320 322 321
185 185 180 172 170 168 166 162 163 164 161 162 158 155 150 150 149 146 143 141 141 137 139 140 135 130 127 122 121 126 131 139 129 128 128 136 133 123 121 113 103 101 106 113 116 119 123 123 116 113 109 102 89 68 64 59 47 33 32 47 58 42 27 53 46 38 27 78 16 5 18 333 342 330 325 335 324 325 316 314 314 315 316 315 312
184 183 181 176 175 172 169 169 169 167 166 160 157 155 156 154 153 152 152 148 142 145 146 141 137 132 129 126 124 127 134 142 133 133 132 131 134 124 115 110 110 106 101 97 106 125 134 130 127 118 106 97 85 77 78 52 33 22 16 28 21 18 36 22 73 97 79 56 27 16 350 347 335 318 328 320 316 315 312 315 311 312 309 306 306
185 186 182 183 178 174 173 171 172 170 163 161 159 160 160 161 156 152 148 150 149 146 146 144 139 136 132 127 126 130 139 145 135 133 131 131 128 114 99 109 108 106 106 109 108 106 117 132 122 116 110 103 94 86 58 72 55 14 3 360 6 357 1 4 123 74 66 87 46 14 328 340 315 309 312 311 313 311 313 311 311 311 305 302 304
189 188 188 185 179 177 175 175 173 169 166 163 163 164 163 159 158 159 157 157 155 154 151 148 145 135 129 126 125 132 142 148 137 130 129 126 122 112 109 115 115 113 105 97 102 114 116 117 112 108 104 98 98 95 76 86 63 4 4 329 5 320 352 323 121 96 69 33 35 347 320 314 306 300 302 304 305 305 306 306 309 309 302 302 297
192 190 191 187 185 182 179 178 173 170 169 168 168 168 167 166 160 157 152 149 146 140 142 143 143 136 130 130 127 130 140 145 142 133 132 131 123 115 115 127 126 127 129 132 139 140 134 127 123 121 113 117 79 76 65 98 81 12 358 323 334 324 328 86 170 149 113 46 345 327 315 307 305 306 307 308 309 308 306 313 327 308 306 310 297
197 195 194 189 188 184 182 178 176 174 172 171 172 171 167 164 160 156 152 153 150 152 150 147 143 136 134 134 134 134 135 142 143 141 139 138 130 131 133 135 138 133 139 141 147 148 143 139 137 130 127 142 101 80 55 95 85 350 345 320 299 313 256 337 120 137 202 335 330 328 322 317 313 311 311 312 311 311 315 353 307 288 343 305 297
200 196 196 191 187 184 183 180 178 176 176 178 174 170 164 160 161 160 157 154 152 149 145 141 139 134 136 136 138 139 136 139 145 148 144 141 140 143 149 149 150 142 141 151 159 155 145 139 132 132 136 164 147 102 66 90 100 358 357 297 292 302 296 67 51 1 338 350 337 325 320 313 316 316 315 311 310 315 312 310 290 311 294 290 304
199 199 196 188 186 184 183 182 180 178 180 178 172 168 167 164 156 154 152 147 144 140 143 142 139 137 141 140 137 138 139 134 138 146 149 147 146 153 152 152 154 155 149 158 169 142 142 150 146 144 149 179 161 116 75 81 113 297 257 311 277 307 283 102 124 298 319 359 337 316 309 308 310 306 299 303 308 312 308 296 296 299 298 300 305
198 193 185 182 182 182 182 182 181 180 178 172 169 168 157 153 158 154 150 146 142 140 138 140 140 142 135 130 134 136 140 139 131 137 151 156 153 148 151 149 162 162 154 163 178 163 155 160 169 167 173 160 150 116 90 22 96 71 289 227 260 220 270 125 211 245 329 320 300 303 301 299 304 301 298 295 299 300 298 295 298 302 302 303 302
183 178 173 175 178 180 179 180 179 178 175 171 163 158 160 159 155 153 147 143 140 141 141 137 129 122 122 128 132 135 135 140 141 127 140 154 158 142 142 155 162 156 158 156 170 167 160 157 168 177 166 167 170 150 71 28 4 29 292 197 248 237 277 124 157 7 20 315 305 297 294 295 296 293 289 289 291 290 290 296 303 307 304 301 300
167 169 173 176 176 176 176 175 174 173 166 160 160 159 156 153 154 147 142 136 135 133 132 128 130 127 122 118 117 119 123 123 144 144 124 138 152 159 139 155 156 143 155 161 180 182 179 147 150 171 165 169 173 174 158 350 337 54 263 269 285 301 330 78 71 89 350 286 279 275 274 276 274 273 277 286 285 284 295 296 297 299 300 296 293
167 170 171 172 174 173 172 170 169 165 162 162 155 143 150 140 134 127 124 124 124 125 129 132 130 129 120 117 116 115 123 130 136 146 153 140 140 152 165 163 158 145 160 173 174 175 131 129 128 159 184 195 203 193 181 311 24 287 285 299 300 301 5 63 46 161 256 247 252 261 265 265 262 266 279 277 283 297 300 301 305 302 296 291 287
159 162 165 166 164 166 161 156 150 149 155 151 144 123 121 126 122 137 114 120 124 123 130 131 130 130 132 132 131 134 138 139 163 163 170 165 157 155 162 171 176 154 140 162 185 154 186 136 164 183 197 224 208 189 209 310 299 300 303 299 309 344 48 106 190 220 208 253 257 258 258 259 269 272 268 279 290 301 306 302 296 293 291 290 288
155 160 159 156 150 140 133 137 138 143 146 141 147 144 128 140 124 127 120 119 117 117 126 124 127 134 135 143 146 151 153 150 164 169 173 173 169 169 166 186 170 167 159 155 154 183 208 220 207 223 229 187 171 175 139 321 307 301 305 308 344 78 243 203 195 207 252 249 248 252 255 251 264 267 278 303 310 305 295 286 283 279 280 283 280
156 157 152 147 143 138 127 110 105 111 107 112 111 102 127 130 127 110 116 106 99 120 123 125 130 133 142 148 153 156 152 148 159 168 171 177 175 181 181 173 178 151 142 174 180 204 222 227 238 189 149 145 127 115 142 214 275 294 302 315 61 204 181 175 226 231 233 245 247 250 255 266 266 272 294 299 292 282 282 286 291 286 279 284 292
153 149 146 130 127 129 120 121 117 112 107 101 95 108 106 111 129 143 148 150 151 149 147 150 150 152 155 153 147 150 147 151 159 163 161 157 165 175 170 184 190 187 166 159 185 219 241 244 156 165 168 174 178 188 197 230 214 243 259 232 212 200 204 202 199 215 240 244 255 260 261 263 281 295 288 279 273 273 274 274 279 282 291 284 291
154 148 133 123 120 124 113 127 126 100 109 115 126 124 100 91 142 152 158 156 147 144 146 158 164 165 161 156 146 145 156 152 163 162 171 160 173 167 164 167 169 140 158 189 183 196 201 207 194 162 132 92 115 89 176 179 192 200 221 225 212 220 219 240 252 237 227 228 241 254 261 268 271 266 272 271 263 266 266 263 269 283 289 298 302
138 125 120 112 121 109 109 105 101 112 111 100 78 89 132 136 121 97 65 45 160 158 162 163 156 157 159 156 144 144 156 169 170 168 181 175 175 177 179 180 186 183 194 199 195 202 157 167 158 170 165 177 213 205 205 204 212 212 201 214 208 202 215 222 225 239 239 233 247 246 255 259 264 264 263 271 269 262 262 266 271 268 285 283 273
129 121 123 118 124 123 116 112 110 101 104 107 113 97 105 116 130 135 131 139 130 139 144 147 156 147 148 144 152 149 169 167 181 176 184 188 190 189 197 198 196 187 202 220 197 160 184 163 189 193 199 201 197 205 202 210 208 219 230 214 204 206 218 219 223 228 227 230 235 241 249 250 260 261 257 263 274 271 250 259 271 273 282 284 288
117 123 124 125 130 117 115 116 122 109 115 116 113 123 123 131 132 133 131 144 146 153 160 159 158 150 142 129 166 166 156 169 177 178 184 191 197 204 212 219 225 208 204 204 137 166 174 195 201 200 200 200 206 204 202 202 221 220 225 227 226 218 227 226 229 229 231 232 240 237 237 239 251 259 261 264 271 279 276 248 247 266 265 273 276
135 136 118 115 122 113 118 117 123 123 121 124 132 139 137 132 122 125 132 140 149 153 156 156 156 161 165 160 139 151 181 183 187 191 194 200 209 217 214 220 226 230 233 240 173 199 180 198 205 201 191 195 205 195 203 209 217 226 225 235 242 228 220 239 237 212 229 233 234 237 237 243 250 259 261 265 267 273 275 284 269 263 271 266 264
124 121 122 118 117 114 118 126 127 132 137 141 138 147 148 146 140 135 131 134 143 157 160 163 164 168 177 182 177 173 172 179 189 189 188 201 191 196 228 240 240 241 241 247 235 185 201 192 199 207 197 202 202 195 209 213 214 225 223 220 235 239 230 236 233 223 229 227 229 239 242 247 253 259 261 258 260 270 279 278 276 268 266 273 275
110 128 128 136 127 134 132 132 132 132 128 126 133 148 156 151 146 143 134 129 131 121 104 121 98 134 150 150 151 168 183 184 178 159 149 174 191 205 217 232 246 243 241 228 236 206 204 201 202 192 200 197 195 204 216 222 220 224 226 230 229 236 240 230 225 239 238 238 237 245 247 246 243 248 258 259 251 257 272 273 274 273 272 264 269
92 126 135 135 99 120 127 123 126 125 134 142 149 153 148 138 136 141 146 139 148 149 167 175 182 171 161 129 155 162 166 175 189 202 209 215 228 236 242 236 226 246 299 69 168 180 189 194 194 208 192 203 213 208 221 229 225 224 229 231 236 233 238 228 228 230 233 237 239 241 241 241 243 239 244 257 267 265 263 267 267 261 266 276 275
83 84 103 121 119 97 105 127 133 135 142 138 130 127 119 130 137 141 142 137 147 149 146 149 132 174 170 181 195 201 201 207 214 222 228 230 229 229 190 213 208 207 222 245 216 212 204 205 207 215 210 213 214 217 224 227 229 227 228 226 234 234 227 233 233 231 234 230 234 240 242 245 240 241 246 251 252 257 263 262 264 268 264 266 272
85 95 111 114 110 110 111 115 114 111 112 113 118 120 115 124 117 127 128 141 138 138 143 128 97 32 179 172 200 204 217 218 222 221 218 220 230 236 197 199 213 221 226 215 217 215 219 219 199 206 213 216 228 229 227 235 229 229 231 228 229 232 233 228 230 228 231 237 242 241 241 244 242 238 235 250 258 253 258 261 263 265 266 268 274
85 84 81 87 98 106 102 104 112 112 109 117 121 131 120 129 147 145 138 140 150 145 150 162 169 170 185 212 192 156 217 211 187 204 242 238 243 249 228 212 212 211 216 222 218 214 228 227 210 215 228 218 225 231 230 233 230 226 231 234 232 231 234 233 236 234 234 239 243 244 242 247 242 243 241 243 252 258 257 256 258 268 271 272 271
85 103 109 109 109 110 114 115 118 121 125 128 137 137 147 143 152 153 150 147 159 162 156 166 170 175 180 163 126 159 147 143 205 201 223 229 228 226 220 225 217 219 220 211 216 222 219 220 223 223 222 222 229 233 228 233 229 229 233 235 238 241 239 241 236 234 239 242 248 247 244 248 246 241 234 239 248 250 256 261 261 261 270 275 272
104 108 118 124 116 123 130 133 133 130 142 141 141 147 147 160 164 166 164 166 168 171 173 183 185 184 179 161 153 179 154 194 207 205 207 215 210 211 203 208 220 216 216 222 214 212 222 232 218 217 225 226 229 230 234 227 228 230 231 233 235 240 236 231 233 233 238 242 246 248 246 245 246 239 238 237 246 254 258 263 263 263 263 268 274
116 116 122 130 132 126 128 133 143 152 147 152 152 159 171 165 168 161 164 165 169 177 183 189 180 192 185 186 191 195 180 198 207 207 210 206 209 207 215 213 208 219 222 211 217 219 222 219 220 219 223 226 228 232 230 229 230 231 231 233 237 241 240 236 234 238 241 246 247 248 249 247 247 244 250 251 247 255 260 262 267 268 269 269 273
127 130 129 133 134 136 143 146 145 146 144 151 168 159 167 167 169 163 176 178 178 176 150 182 173 177 203 206 209 212 202 197 207 211 218 213 207 220 218 220 222 214 214 215 212 213 218 221 218 216 219 228 223 231 226 228 229 229 233 233 235 240 242 241 237 240 242 246 250 250 252 251 250 248 250 256 259 259 263 264 266 268 271 270 272
135 142 141 140 142 156 157 157 142 148 157 160 179 159 159 163 173 174 170 179 179 181 172 174 185 189 199 220 216 219 213 200 204 211 208 215 218 215 216 221 222 219 217 212 212 204 209 212 221 221 217 221 218 218 221 227 224 229 232 235 238 240 244 245 242 245 245 249 253 256 255 254 256 257 260 261 262 266 266 270 273 272 272 273 275
146 146 148 148 150 139 150 150 143 158 159 156 160 155 163 158 166 178 161 178 184 195 191 197 195 204 202 216 219 217 216 212 210 211 211 216 217 221 221 223 220 221 220 216 217 208 204 212 220 229 228 228 227 224 220 221 220 227 236 240 245 246 245 247 244 247 250 257 262 263 264 261 259 259 262 263 263 268 273 273 273 274 275 273 273
147 143 145 145 147 137 151 141 142 152 150 152 164 173 174 173 183 191 184 172 196 201 202 202 201 203 207 211 213 214 216 214 215 214 220 218 221 226 223 220 217 215 218 222 216 205 206 215 219 223 233 237 230 227 233 235 233 230 230 231 243 251 251 254 255 258 259 262 265 266 267 265 264 261 265 266 266 270 272 272 273 276 276 274 277
137 134 138 145 148 145 161 157 158 167 166 171 174 182 187 178 180 192 203 196 202 203 209 207 207 209 211 214 217 218 219 217 220 220 221 224 222 224 220 215 214 214 216 219 219 218 217 215 216 221 224 229 232 235 238 235 240 241 243 240 246 251 254 254 255 257 256 258 264 267 269 268 266 264 263 267 266 264 266 269 268 268 270 277 276
138 141 154 155 166 165 164 172 159 175 174 183 181 188 197 200 200 205 210 210 208 207 209 210 209 211 212 214 212 222 219 218 220 222 222 221 222 219 219 215 214 216 221 217 212 214 215 217 212 213 218 226 226 230 235 235 235 237 240 241 245 252 254 255 254 254 256 255 255 260 260 261 264 266 266 268 272 272 273 272 272 273 273 274 278
162 152 169 168 165 169 179 172 171 188 183 197 201 203 201 207 204 205 207 208 212 213 216 215 216 216 215 221 220 220 220 224 224 222 224 222 222 217 213 210 212 211 210 216 225 220 218 217 217 216 224 230 232 236 235 235 237 236 240 241 243 243 249 250 252 253 252 253 250 253 255 259 263 265 267 266 267 268 270 273 274 274 276 276 276
165 171 178 182 185 181 188 195 186 195 201 205 204 211 210 210 214 213 211 211 212 213 212 214 220 217 219 224 222 225 222 222 224 226 224 224 218 216 210 209 213 212 210 221 222 223 224 225 220 220 221 228 228 232 233 233 236 236 236 237 240 248 255 259 259 253 258 258 255 251 255 258 261 265 266 267 267 267 267 270 272 275 277 279 280
190 189 189 195 196 203 201 199 204 207 209 212 213 219 217 215 217 218 217 217 217 216 217 216 218 219 219 224 223 224 221 222 224 224 222 221 218 213 211 211 210 211 210 215 217 219 222 222 223 226 227 229 233 233 234 234 236 236 238 232 247 255 258 260 261 262 263 255 255 255 256 260 261 262 264 265 266 268 269 270 274 279 280 280 279
212 209 208 207 212 211 211 212 218 217 214 217 222 219 216 218 217 215 215 217 219 221 220 220 220 220 222 221 220 220 220 221 220 219 219 218 219 213 214 213 216 215 218 216 219 220 222 222 225 227 229 230 232 232 234 234 237 235 239 241 249 251 251 252 251 250 251 254 252 253 255 257 263 265 266 267 270 271 274 278 279 278 278 280 284